Regional Weather Roundup
Issued by NWS

Home | Current Version | Previous Version | Text Only | Print | Product List | Glossary Off
Versions: 1 2 3 4 5 6 7 8 9 10 11 12 13 14 15 16 17 18 19 20 21 22 23 24 25 26 27 28 29 30 31 32 33 34 35 36 37 38 39 40 41 42 43 44 45 46 47 48 49 50

000
ASUS43 KDTX 222010
RWRMI
MICHIGAN HOURLY REGIONAL WEATHER ROUNDUP
NATIONAL WEATHER SERVICE DETROIT/PONTIAC MI
400 PM EDT TUE JUL 22 2014

NOTE: "FAIR" INDICATES FEW OR NO CLOUDS BELOW 12,000 FEET WITH NO
SIGNIFICANT WEATHER AND/OR OBSTRUCTION TO VISIBILITY.

MIZ047>049-052>055-059>063-066>070-074>076-081>083-222100-
SOUTHEAST LOWER MICHIGAN

CITY           SKY/WX    TMP DP  RH WIND       PRES   REMARKS
ADRIAN         SUNNY     89  63  41 W10G18    30.02F HX  90
ALMA           SUNNY     86  65  49 SW9G21    29.96F
ANN ARBOR      SUNNY     88  62  41 SW9       30.01F
BAD AXE        SUNNY     86  65  49 SW16      29.95F
CARO           MOSUNNY   88  65  46 SW14G20   29.95F HX  90
DETROIT CITY   SUNNY     91  65  41 S13G21    30.00S HX  93
DETROIT        MOSUNNY   90  65  43 S15       30.01F HX  92
FLINT          SUNNY     89  66  46 SW15      29.98F HX  91
GROSSE ILE     SUNNY     82  72  69 SE12      30.00S
HILLSDALE      SUNNY     87  67  52 SW7       30.03F
HOWELL         SUNNY     86  63  46 SW14G22   30.00F

CITY           SKY/WX    TMP DP  RH WIND       PRES   REMARKS
JACKSON        SUNNY     86  68  54 SW13G20   30.02F
LAMBERTVILLE   MOSUNNY   90  63  40 SW9G18    30.02F HX  90
LANSING        MOSUNNY   86  67  52 SW12      29.99F
LAPEER         FAIR      87  63  43 W8G22     29.98F
MASON          SUNNY     85  66  53 SW10G17   30.01S
MONROE         SUNNY     91  63  38 SW16      29.99F HX  92
MT. CLEMENS    MOSUNNY   89  67  49 SW13G20   29.97F HX  92
PONTIAC        SUNNY     87  64  46 SW14      30.00F
PORT HOPE        N/A     87  65  47 SW8G16    29.92F
PORT HURON     SUNNY     86  66  51 S12G21    30.00R
TRI CITIES     SUNNY     88  66  48 SW18G28   29.94F HX  90
TROY           SUNNY     90  61  38 SW14      30.01S HX  90
SAGINAW HB     MOSUNNY   88  63  42 SW18G24   29.94F
$$
MIZ043>046-050>051-056>058-064>065-071>073-077>080-222100-
SOUTHWEST LOWER MICHIGAN

CITY           SKY/WX    TMP DP  RH WIND       PRES   REMARKS
BATTLE CREEK   SUNNY     87  66  49 S15       30.01F
BENTON HARBOR  MOSUNNY   86  67  52 S13       29.98F
BIG RAPIDS     SUNNY     85  66  53 S15G23    29.91F
COLDWATER      SUNNY     87  68  53 SW10      30.02F HX  90
FREMONT        FAIR      85  64  48 S21G26    29.92F
HOLLAND        PTSUNNY   87  67  51 S16       29.96F HX  90
GRAND RAPIDS   MOSUNNY   87  69  54 SW14      29.97F HX  91
IONIA          FAIR      86  66  51 SW10      29.97F
KALAMAZOO      SUNNY     87  68  52 S13       30.00F HX  90
LUDINGTON      SUNNY     82  69  64 SW22G31   29.89F
MARSHALL       MOSUNNY   85  68  56 SW12      30.01F
MOUNT PLEASANT SUNNY     87  65  48 SW15      29.93F
MUSKEGON       PTSUNNY   84  66  54 S23G35    29.93F
SOUTH HAVEN    MOSUNNY   86  70  58 S12       29.97F HX  90
$$
MIZ016>042-222100-
NORTHERN LOWER MICHIGAN

CITY           SKY/WX    TMP DP  RH WIND       PRES   REMARKS
ALPENA         PTSUNNY   87  66  49 SW13G21   29.86R
BEAVER ISLAND  PTSUNNY   75  67  77 SW17G36   29.84R
BELLAIRE       CLOUDY    82  68  61 SW9       29.86R
CADILLAC       PTSUNNY   84  70  63 S18G30    29.90S
CHARLEVOIX     PTSUNNY   84  70  63 SW16G28   29.88S
FRANKFORT      CLOUDY    75  64  69 SW10G21   29.89R
GAYLORD        CLOUDY    82  67  60 SW20G29   29.90R
GRAYLING       CLOUDY    83  66  55 SW10G18   29.90S
HARBOR SPRINGS CLOUDY    77  71  83 CALM      29.86S
HOUGHTON LAKE  PTSUNNY   84  65  52 S13G22    29.91F
MANISTEE       CLOUDY    81  66  61 SW10G26   29.89S
OSCODA         MOSUNNY   88  64  45 S16G22    29.89R
PELLSTON       CLOUDY    79  73  82 SW7       29.85F
ROGERS CITY    RAIN      80  71  74 S10G21    29.83F
TRAVERSE CITY  CLOUDY    84  68  58 SW13G23   29.86R
$$
MIZ007>008-015-222100-
EASTERN UPPER MICHIGAN

CITY           SKY/WX    TMP DP  RH WIND       PRES   REMARKS
KINROSS        CLOUDY    73  70  88 SW13G18   29.82F
MACKINAC ISLAN CLOUDY    74  71  88 SW12G18   29.83S
NEWBERRY       CLOUDY    74  67  78 SW8       29.82R
S. S. MARIE    CLOUDY    73  68  84 W10G24    29.82S HAZE
MUNISING         N/A     73  58  59 NW15G25   29.86R
$$
MIZ004>006-011>014-085-222100-
CENTRAL UPPER MICHIGAN

CITY           SKY/WX    TMP DP  RH WIND       PRES   REMARKS
MANISTIQUE     MOSUNNY   68  62  81 SW15G23   29.82R
ESCANABA       MOSUNNY   88  64  45 NW14G23   29.81R
MENOMINEE      MOSUNNY   90  68  48 NW7       29.82R HX  93
SAWYER-GWINN   PTSUNNY   81  61  50 NW17G29   29.88R
$$
MIZ001>003-009>011-084-222100-
WESTERN UPPER MICHIGAN

CITY           SKY/WX    TMP DP  RH WIND       PRES   REMARKS
IRON MOUNTAIN  CLOUDY    82  63  52 NW15      29.89R
HOUGHTON       CLOUDY    66  58  75 NW20G28   29.90R
IRONWOOD       CLOUDY    70  63  78 NW7       29.96R
$$

ABBREVIATIONS USED IN REMARKS
   TC - TEMPERATURE IN CELSIUS
  WCI - WIND CHILL INDEX
   HX - HEAT INDEX
  VSB - VISIBILITY



USA.gov is the U.S. government's official web portal to all federal, state and local government web resources and services.